Flag Weather past 2 weeks in Port Vila, Vanuatu

Now
81 °F

Scattered clouds.


Feels Like: 83 °F
Forecast: 75 / 79 °F
Wind: 17 mph from East

Location: Bauerfield Efate

Current Time: Nov 24, 2014 at 4:20:43 PM

Latest Report: Nov 24, 2014 at 4:00 PM


Visibility: N/A

Pressure: 29.86 "Hg

Humidity: 62%

Dew point: 66 °F

Location of Port VilaLocation

Historic Weather in Port Vila — Graph

°F

Port Vila temperature yesterday

Maximum temperature yesterday: 84 °F (at 9:00 AM)
Minimum temperature yesterday: 68 °F (at 2:00 AM)
Average temperature yesterday: 77 °F

Past Weeks' High & Low Weather Summary

 TemperatureHumidityPressure
High102 °F (Nov 21, 1:00 PM)100% (Nov 9, 11:00 PM)30.04 "Hg (Nov 9, 11:00 PM)
Low61 °F (Nov 12, 3:00 AM)37% (Nov 21, 1:00 PM)29.80 "Hg (Nov 9, 3:00 PM)
Average75 °F84%29.92 "Hg
* Reported Nov 9 3:00 PM — Nov 24 3:00 PM, Port Vila, Weather by CustomWeather, © 2014

Note: Actual official high and low records may vary slightly from our data, if they occured in-between our weather recording intervals... More about our weather records

Advertising

Port Vila weather history for previous 24 hours

 ConditionsComfort  
Time TempWeatherWind HumidityBarometerVisibility
3:00 PM
Nov 24
82 °FPartly sunny.16 mph62%29.86 "HgN/A
2:00 PM82 °FPartly sunny.16 mph62%29.89 "HgN/A
1:00 PM82 °FPartly sunny.17 mph66%29.89 "HgN/A
12:00 PM82 °FPartly sunny.16 mph66%29.92 "HgN/A
11:00 AM82 °FPartly sunny.18 mph66%29.92 "HgN/A
10:00 AM82 °FPartly sunny.14 mph70%29.92 "HgN/A
9:00 AM81 °FBroken clouds.15 mph70%29.95 "HgN/A
8:00 AM77 °FPartly sunny.12 mph83%29.95 "HgN/A
12:00 AM75 °FPassing clouds.5 mph83%29.95 "HgN/A
11:00 PM
Nov 23
75 °FPassing clouds.7 mph83%29.95 "HgN/A
10:00 PM77 °FPassing clouds.9 mph83%29.95 "HgN/A
9:00 PM77 °FPassing clouds.10 mph83%29.95 "HgN/A
8:00 PM77 °FPassing clouds.13 mph83%29.92 "HgN/A
7:00 PM77 °FPassing clouds.12 mph83%29.92 "HgN/A
6:00 PM79 °FScattered clouds.13 mph84%29.89 "HgN/A
5:00 PM81 °FPassing clouds.15 mph79%29.89 "HgN/A
4:00 PM84 °FPartly sunny.16 mph70%29.86 "HgN/A
Weather by CustomWeather, © 2014

See weather overviewHow to use our weather pages